Carbondale, IL

7:37 AM CST on December 13, 2019 (GMT -0600)
Southern Illinois

Weather History for KMDH - November, 2019

Change the Weather History Date:

Saturday, November 16, 2019

  Actual Average Record
Temperature  
Mean Temperature 36 °F -  
Max Temperature 48 °F 55 °F 80 °F (1931)
Min Temperature 23 °F 34 °F 14 °F (1940)
Degree Days  
Heating Degree Days 30    
Moisture  
Dew Point 27 °F    
Average Humidity 79    
Maximum Humidity 92    
Minimum Humidity 52    
Precipitation  
Precipitation 0.00 in - - ()
Sea Level Pressure  
Sea Level Pressure 30.27 in    
Wind  
Wind Speed 2 mph (NE)    
Max Wind Speed 8 mph    
Max Gust Speed -    
Visibility 5 miles    
Events      
Averages and records for this station are not official NWS values.
T = Trace of Precipitation, MM = Missing Value Source: NWS Daily Summary

Daily Weather History Graph

Daily Weather History Graph

Search for Another Location

Airport or City:

Astronomy

Nov. 16, 2019 Rise Set
Actual Time 6:38 AM CST 4:45 PM CST
Civil Twilight 6:09 AM CST 5:13 PM CST
Nautical Twilight 5:38 AM CST 5:44 PM CST
Astronomical Twilight 5:07 AM CST 6:15 PM CST
Moon 8:19 PM CST (11/16) 10:29 AM CST (11/16)
Length of Visible Light 11h 03m
Length of Day
10h 06m
Waning Gibbous, 82% of the Moon is Illuminated
Nov 16
Waning Gibbous
Nov 19
Last Quarter
Nov 26
New
Dec 4
First Quarter
Dec 11
Full

Hourly Weather History & Observations

Time (CST) Temp. Windchill Dew Point Humidity Pressure Visibility Wind Dir Wind Speed Gust Speed Precip Events Conditions
12:52 AM 24.1 °F - 21.9 °F 91% 30.36 in 7.0 mi Calm Calm - N/A   Clear
1:52 AM 25.0 °F - 21.9 °F 88% 30.36 in 6.0 mi Calm Calm - N/A   Clear
2:41 AM 24.1 °F - 21.9 °F 91% 30.34 in 2.0 mi Calm Calm - N/A   Clear
2:52 AM 24.1 °F - 21.0 °F 88% 30.34 in 3.0 mi Calm Calm - N/A   Clear
3:52 AM 24.1 °F - 21.0 °F 88% 30.35 in 5.0 mi Calm Calm - N/A   Clear
4:52 AM 23.0 °F - 19.9 °F 88% 30.36 in 5.0 mi Calm Calm - N/A   Clear
5:52 AM 24.1 °F - 21.0 °F 88% 30.37 in 6.0 mi Calm Calm - N/A   Clear
6:52 AM 23.0 °F - 21.0 °F 92% 30.38 in 4.0 mi Calm Calm - N/A   Clear
7:52 AM 28.9 °F - 26.1 °F 89% 30.38 in 5.0 mi Calm Calm - N/A   Clear
8:52 AM 36.0 °F 29.6 °F 28.9 °F 76% 30.38 in 5.0 mi East 8.1 mph - N/A   Haze
10:52 AM 44.1 °F 41.5 °F 30.9 °F 60% 30.34 in 7.0 mi North 4.6 mph - N/A   Clear
11:52 AM 45.0 °F - 30.9 °F 58% 30.30 in 7.0 mi North - - N/A   Clear
12:52 PM 48.0 °F - 32.0 °F 54% 30.27 in 7.0 mi East 4.6 mph - N/A   Clear
1:52 PM 48.9 °F - 32.0 °F 52% 30.25 in 7.0 mi NE 5.8 mph - N/A   Clear
2:52 PM 48.9 °F - 32.0 °F 52% 30.24 in 7.0 mi NE 5.8 mph - N/A   Clear
3:52 PM 48.9 °F - 32.0 °F 52% 30.22 in 7.0 mi North 5.8 mph - N/A   Clear
4:52 PM 43.0 °F 39.5 °F 30.9 °F 62% 30.22 in 7.0 mi NNE 5.8 mph - N/A   Clear
5:52 PM 37.9 °F 34.4 °F 30.0 °F 73% 30.22 in 7.0 mi NE 4.6 mph - N/A   Clear
6:52 PM 37.0 °F 31.6 °F 30.0 °F 76% 30.21 in 7.0 mi ENE 6.9 mph - N/A   Clear
7:52 PM 36.0 °F 32.1 °F 30.0 °F 79% 30.21 in 7.0 mi East 4.6 mph - N/A   Clear
8:52 PM 34.0 °F 31.0 °F 28.9 °F 82% 30.21 in 6.0 mi NE 3.5 mph - N/A   Haze
9:52 PM 33.1 °F - 28.9 °F 85% 30.19 in 5.0 mi Calm Calm - N/A   Clear
10:43 PM 28.9 °F - 27.0 °F 92% 30.17 in 2.5 mi Calm Calm - N/A   Clear
10:52 PM 30.0 °F - 28.0 °F 92% 30.18 in 2.5 mi Calm Calm - N/A   Clear
11:15 PM 26.1 °F - 24.1 °F 92% 30.15 in 1.0 mi Calm Calm - N/A   Mist
11:27 PM 28.0 °F - 25.0 °F 88% 30.16 in 1.2 mi Calm Calm - N/A   Partly Cloudy
11:36 PM 28.9 °F - 27.0 °F 92% 30.17 in 2.0 mi Calm Calm - N/A   Partly Cloudy
11:52 PM 28.0 °F 24.2 °F 26.1 °F 92% 30.18 in 2.5 mi WNW 3.5 mph - N/A   Clear